This demonstration page uses our WeatherBlox Daily Observations layout. Learn more.

Left ArrowRight Arrow

39.51506, -84.39828

Hourly Observations for May 19, 2015

Temp ( °F °C ) Dew Point ( °F °C ) Humidity (%) Winds ( mph kmh ) Pressure ( in mb ) Visibility ( mi km ) Precip ( " mm )
12:15 am 00:15 Clear with Mist and Fog 69 20.8 66 19 90 90 Calm 30.06 1018 4 6 0.00 0.00
12:35 am 00:35 Clear with Mist and Fog 69 20.8 66 19 90 90 Calm 30.06 1018 3 5 0.00 0.00
12:55 am 00:55 Clear with Mist and Fog 69 20.8 66 19 90 90 Calm 30.06 1018 4 6 0.00 0.00
1:15 am 01:15 Partly Cloudy with Mist and Fog 69 20.8 66 19 90 90 Calm 30.06 1018 4 6 0.00 0.00
1:35 am 01:35 Clear with Mist and Fog 69 20.8 66 19 90 90 Calm 30.03 1017 4 6 0.00 0.00
1:55 am 01:55 Clear with Mist and Fog 69 20.5 66 18.7 89 89 Calm 30.03 1017 4 6 0.00 0.00
2:15 am 02:15 Mostly Cloudy with Mist and Fog 69 20.8 66 19 90 90 Calm 30.03 1017 2 3 0.00 0.00
2:35 am 02:35 Clear 69 20.8 66 19 90 90 Calm 30.03 1017 7 11 0.00 0.00
2:55 am 02:55 Clear 69 20.8 66 19 90 90 Calm 30.03 1017 10 16 0.00 0.00
3:15 am 03:15 Clear 64 18 58 14.2 79 79 NW 6 9 30.03 1017 10 16 0.00 0.00
3:35 am 03:35 Clear 64 18 56 13.1 73 73 Calm 30.06 1018 10 16 0.00 0.00
3:55 am 03:55 Clear 62 16.9 53 11.6 71 71 Calm 30.06 1018 10 16 0.00 0.00
4:15 am 04:15 Clear 62 16.6 52 11.2 71 71 Calm 30.06 1018 10 16 0.00 0.00
4:35 am 04:35 Clear 61 16 51 10.6 71 71 Calm 30.09 1019 10 16 0.00 0.00
4:55 am 04:55 Clear 61 16 51 10.7 71 71 Calm 30.09 1019 10 16 0.00 0.00
5:15 am 05:15 Clear 60 15.3 52 11 76 76 Calm 30.09 1019 10 16 0.00 0.00
5:35 am 05:35 Clear 59 15.2 52 11 76 76 Calm 30.09 1019 10 16 0.00 0.00
5:55 am 05:55 Clear 57 14.1 49 9.6 75 75 Calm 30.09 1019 10 16 0.00 0.00
6:15 am 06:15 Clear 57 13.8 48 9 73 73 Calm 30.12 1020 10 16 0.00 0.00
6:35 am 06:35 Sunny 56 13.1 47 8.1 72 72 Calm 30.12 1020 10 16 0.00 0.00
6:55 am 06:55 Sunny 57 13.8 47 8.2 69 69 Calm 30.12 1020 10 16 0.00 0.00
7:15 am 07:15 Sunny 57 13.8 47 8.6 71 71 Calm 30.12 1020 10 16 0.00 0.00
7:35 am 07:35 Sunny 57 13.8 47 8.2 69 69 Calm 30.12 1020 10 16 0.00 0.00
7:55 am 07:55 Sunny 57 13.8 46 8 68 68 NW 5 7 30.15 1021 10 16 0.00 0.00
8:15 am 08:15 Sunny 57 13.8 46 7.6 66 66 WNW 6 9 30.15 1021 10 16 0.00 0.00
8:35 am 08:35 Sunny 57 13.8 46 7.5 66 66 NNW 5 7 30.15 1021 10 16 0.00 0.00
8:55 am 08:55 Sunny 60 15.3 49 9.3 68 68 WNW 6 9 30.15 1021 10 16 0.00 0.00
9:15 am 09:15 Sunny 60 15.3 47 8.2 63 63 NNW 7 11 30.15 1021 10 16 0.00 0.00
9:35 am 09:35 Sunny 60 15.3 46 7.8 61 61 NNW 9 15 30.15 1021 10 16 0.00 0.00
9:55 am 09:55 Sunny 60 15.5 46 7.8 60 60 NNW 8 13 30.15 1021 10 16 0.00 0.00
10:15 am 10:15 Sunny 61 16 47 8.1 60 60 NNW 9 15 30.15 1021 10 16 0.00 0.00
10:35 am 10:35 Sunny 61 16.1 46 8 59 59 W 10 17 30.15 1021 10 16 0.00 0.00
10:55 am 10:55 Sunny 62 16.5 46 7.7 56 56 W 9 15 30.12 1020 10 16 0.00 0.00
11:15 am 11:15 Sunny 62 16.6 47 8.2 58 58 WNW 9 15 30.12 1020 10 16 0.00 0.00
11:35 am 11:35 Sunny 62 16.6 46 8 57 57 NNW 8 13 30.15 1021 10 16 0.00 0.00
11:55 am 11:55 Sunny 63 17 47 8.1 56 56 NNW 9 15 30.12 1020 10 16 0.00 0.00
12:15 pm 12:15 Sunny 64 17.8 48 9 57 57 WNW 12 19 30.15 1021 10 16 0.00 0.00
12:35 pm 12:35 Sunny 64 18 48 9 56 56 N 6 9 30.12 1020 10 16 0.00 0.00
12:55 pm 12:55 Sunny 66 19.1 49 9.5 54 54 W 10 17 30.12 1020 10 16 0.00 0.00
1:15 pm 13:15 Partly Cloudy 67 19.5 50 10.2 55 55 W 6 9 30.15 1021 10 16 0.00 0.00
1:35 pm 13:35 Partly Cloudy 66 19 49 9.5 54 54 WNW 7 11 30.15 1021 10 16 0.00 0.00
1:55 pm 13:55 Partly Cloudy 67 19.3 49 9.5 53 53 NW 9 15 30.12 1020 10 16 0.00 0.00
2:15 pm 14:15 Partly Cloudy 67 19.5 49 9.7 53 53 NW 9 15 30.12 1020 10 16 0.00 0.00
2:35 pm 14:35 Sunny 69 20.8 51 10.7 53 53 W 6 9 30.12 1020 10 16 0.00 0.00
2:55 pm 14:55 Sunny 69 20.8 50 9.8 49 49 NW 12 19 30.12 1020 10 16 0.00 0.00
3:15 pm 15:15 Partly Cloudy 69 20.8 49 9.2 48 48 WSW 7 11 30.12 1020 10 16 0.00 0.00
3:35 pm 15:35 Partly Cloudy 69 20.8 49 9.7 49 49 NW 7 11 30.12 1020 10 16 0.00 0.00
3:55 pm 15:55 Partly Cloudy 69 20.8 49 9.3 48 48 WNW 7 11 30.09 1019 10 16 0.00 0.00
4:15 pm 16:15 Sunny 69 20.8 48 8.7 46 46 NW 10 17 30.12 1020 10 16 0.00 0.00
4:35 pm 16:35 Sunny 69 20.8 49 9.2 48 48 NW 9 15 30.12 1020 10 16 0.00 0.00
4:55 pm 16:55 Partly Cloudy 69 20.8 49 9.4 48 48 NNW 12 19 30.12 1020 10 16 0.00 0.00
5:15 pm 17:15 Partly Cloudy 69 20.8 48 8.9 47 47 NW 10 17 30.12 1020 10 16 0.00 0.00
5:35 pm 17:35 Sunny 69 20.3 47 8.2 46 46 NW 7 11 30.12 1020 10 16 0.00 0.00
5:55 pm 17:55 Sunny 67 19.5 45 7.2 45 45 NW 10 17 30.12 1020 10 16 0.00 0.00
6:15 pm 18:15 Partly Cloudy 67 19.5 46 7.6 46 46 N 12 19 30.12 1020 10 16 0.00 0.00
6:35 pm 18:35 Partly Cloudy 67 19.5 46 7.8 47 47 NNW 12 19 30.12 1020 10 16 0.00 0.00
6:55 pm 18:55 Sunny 64 18 43 6.2 46 46 NNW 10 17 30.12 1020 10 16 0.00 0.00
7:15 pm 19:15 Sunny 64 18 45 7 49 49 N 10 17 30.12 1020 10 16 0.00 0.00
7:35 pm 19:35 Sunny 62 16.8 43 6.2 50 50 N 8 13 30.12 1020 10 16 0.00 0.00
7:55 pm 19:55 Sunny 62 16.4 43 6.3 51 51 N 9 15 30.15 1021 10 16 0.00 0.00
8:15 pm 20:15 Sunny 60 15.8 43 6.3 53 53 N 8 13 30.15 1021 10 16 0.00 0.00
8:35 pm 20:35 Sunny 60 15.3 44 6.8 57 57 N 6 9 30.15 1021 10 16 0.00 0.00
8:55 pm 20:55 Clear 58 14.5 44 6.7 60 60 N 6 9 30.15 1021 10 16 0.00 0.00
9:15 pm 21:15 Clear 57 13.8 45 7 64 64 N 6 9 30.15 1021 10 16 0.00 0.00
9:35 pm 21:35 Clear 57 13.8 46 7.5 66 66 N 6 9 30.15 1021 10 16 0.00 0.00
9:55 pm 21:55 Clear 56 13.4 45 7.1 66 66 N 7 11 30.15 1021 10 16 0.00 0.00
10:15 pm 22:15 Clear 55 12.5 44 6.5 67 67 N 12 19 30.18 1022 10 16 0.00 0.00
10:35 pm 22:35 Clear 55 12.5 43 6.1 65 65 N 9 15 30.18 1022 10 16 0.00 0.00
10:55 pm 22:55 Clear 55 12.5 43 6.1 65 65 N 10 17 30.18 1022 10 16 0.00 0.00
11:15 pm 23:15 Clear 55 12.5 44 6.5 67 67 N 9 15 30.18 1022 10 16 0.00 0.00
11:35 pm 23:35 Clear 52 11 42 5.8 71 71 N 7 11 30.18 1022 10 16 0.00 0.00
11:55 pm 23:55 Clear 52 11 42 5.6 70 70 N 7 11 30.18 1022 10 16 0.00 0.00

Powered by AerisWeather